When you browse on this site, cookies collect data to enhance your experience and personalize the content and advertising you see.
Visit our Privacy Policy to learn more. By continuing to use the site, you agree to this use of cookies and data.
  • In Portugal
  • List of Countries
  • For 7 days
  • Water Temperature
  • Satellite Maps
  • Weather Map
  • Weather Widgets
  • user-avatar
    Login

    Hourly Weather Lozenec

    Today, 23 May, Thursday

    Time Temperature Precipitation Wind Pressure Humidity
    00:00 +17°C° 0 mm 2 mps 756 mmHg 80%
    01:00 +17°C° 0 mm 2 mps 756 mmHg 83%
    02:00 +16°C° 0 mm 2 mps 756 mmHg 83%
    03:00 +16°C° 0 mm 2 mps 756 mmHg 84%
    04:00 +16°C° 0 mm 2 mps 756 mmHg 85%
    05:00 +16°C° 0 mm 2 mps 756 mmHg 86%
    06:00 +18°C° 0 mm 2 mps 756 mmHg 79%
    07:00 +21°C° 0 mm 1 mps 756 mmHg 72%
    08:00 +23°C° 0 mm 1 mps 756 mmHg 65%
    09:00 +24°C° 0 mm 1 mps 756 mmHg 61%
    10:00 +25°C° 0 mm 2 mps 755 mmHg 58%
    11:00 +26°C° 0 mm 2 mps 755 mmHg 54%
    12:00 +26°C° 0.1 mm 2 mps 755 mmHg 55%
    13:00 +26°C° 0.1 mm 2 mps 755 mmHg 56%
    14:00 +26°C° 0.1 mm 3 mps 755 mmHg 57%
    15:00 +25°C° 0.1 mm 2 mps 755 mmHg 59%
    16:00 +25°C° 0.1 mm 2 mps 755 mmHg 62%
    17:00 +24°C° 0.1 mm 2 mps 755 mmHg 65%
    18:00 +22°C° 0.5 mm 1 mps 755 mmHg 71%
    19:00 +20°C° 0.5 mm 1 mps 754 mmHg 77%
    20:00 +18°C° 0.5 mm 1 mps 754 mmHg 83%
    21:00 +18°C° 0.2 mm 1 mps 754 mmHg 84%
    22:00 +18°C° 0.2 mm 1 mps 754 mmHg 84%
    23:00 +18°C° 0.2 mm 1 mps 754 mmHg 85%

    Tomorrow, 24 May, Friday

    Time Temperature Precipitation Wind Pressure Humidity
    00:00 +16°C° 0.2 mm 1 mps 754 mmHg 86%
    01:00 +16°C° 0.2 mm 1 mps 754 mmHg 86%
    02:00 +16°C° 0.2 mm 1 mps 754 mmHg 87%
    03:00 +16°C° 0.3 mm 1 mps 754 mmHg 89%
    04:00 +16°C° 0.3 mm 2 mps 754 mmHg 90%
    05:00 +16°C° 0.3 mm 2 mps 754 mmHg 91%
    06:00 +16°C° 0.9 mm 2 mps 754 mmHg 91%
    07:00 +17°C° 0.9 mm 2 mps 754 mmHg 91%
    08:00 +17°C° 0.9 mm 2 mps 754 mmHg 92%
    09:00 +19°C° 0.2 mm 2 mps 754 mmHg 83%
    10:00 +20°C° 0.2 mm 2 mps 754 mmHg 75%
    11:00 +21°C° 0.2 mm 2 mps 754 mmHg 67%
    12:00 +23°C° 0.1 mm 2 mps 754 mmHg 65%
    13:00 +23°C° 0.1 mm 2 mps 754 mmHg 63%
    14:00 +24°C° 0.1 mm 1 mps 753 mmHg 61%
    15:00 +23°C° 0.1 mm 2 mps 753 mmHg 65%
    16:00 +23°C° 0.1 mm 2 mps 753 mmHg 70%
    17:00 +21°C° 0.1 mm 2 mps 753 mmHg 75%
    18:00 +20°C° 0 mm 2 mps 753 mmHg 78%
    19:00 +19°C° 0 mm 2 mps 753 mmHg 82%
    20:00 +18°C° 0 mm 2 mps 753 mmHg 85%
    21:00 +18°C° 0 mm 2 mps 753 mmHg 85%
    22:00 +17°C° 0 mm 2 mps 753 mmHg 85%
    23:00 +17°C° 0 mm 2 mps 754 mmHg 85%

    Day after tomorrow, 25 May, Saturday

    Time Temperature Precipitation Wind Pressure Humidity
    00:00 +17°C° 0 mm 3 mps 754 mmHg 86%
    01:00 +16°C° 0 mm 3 mps 754 mmHg 86%
    02:00 +16°C° 0 mm 3 mps 754 mmHg 86%
    03:00 +16°C° 0 mm 3 mps 754 mmHg 86%
    04:00 +16°C° 0 mm 3 mps 754 mmHg 86%
    05:00 +16°C° 0 mm 3 mps 754 mmHg 86%
    06:00 +17°C° 0 mm 3 mps 754 mmHg 82%
    07:00 +18°C° 0 mm 3 mps 755 mmHg 77%
    08:00 +20°C° 0 mm 3 mps 755 mmHg 73%
    09:00 +21°C° 0 mm 2 mps 755 mmHg 66%
    10:00 +24°C° 0 mm 2 mps 755 mmHg 59%
    11:00 +25°C° 0 mm 2 mps 755 mmHg 51%
    12:00 +25°C° 0.1 mm 2 mps 755 mmHg 54%
    13:00 +25°C° 0.1 mm 2 mps 755 mmHg 56%
    14:00 +26°C° 0.1 mm 2 mps 755 mmHg 58%
    15:00 +25°C° 0.3 mm 2 mps 755 mmHg 62%
    16:00 +25°C° 0.3 mm 2 mps 755 mmHg 66%
    17:00 +25°C° 0.3 mm 3 mps 755 mmHg 70%
    18:00 +23°C° 0 mm 2 mps 755 mmHg 73%
    19:00 +20°C° 0 mm 2 mps 755 mmHg 77%
    20:00 +20°C° 0 mm 1 mps 755 mmHg 80%
    21:00 +19°C° 0 mm 1 mps 756 mmHg 82%
    22:00 +18°C° 0 mm 2 mps 756 mmHg 83%
    23:00 +17°C° 0 mm 2 mps 756 mmHg 84%

    26 May, Sunday

    Time Temperature Precipitation Wind Pressure Humidity
    00:00 +17°C° 0 mm 2 mps 756 mmHg 85%
    01:00 +17°C° 0 mm 2 mps 756 mmHg 86%
    02:00 +17°C° 0 mm 2 mps 756 mmHg 86%
    03:00 +17°C° 0 mm 2 mps 757 mmHg 87%
    04:00 +17°C° 0 mm 2 mps 757 mmHg 87%
    05:00 +16°C° 0 mm 2 mps 757 mmHg 87%
    06:00 +19°C° 0 mm 2 mps 757 mmHg 80%
    07:00 +22°C° 0 mm 1 mps 757 mmHg 73%
    08:00 +24°C° 0 mm 1 mps 757 mmHg 66%
    09:00 +25°C° 0 mm 1 mps 758 mmHg 61%
    10:00 +27°C° 0 mm 1 mps 758 mmHg 56%
    11:00 +28°C° 0 mm 1 mps 758 mmHg 51%
    12:00 +28°C° 0 mm 2 mps 758 mmHg 53%
    13:00 +27°C° 0 mm 3 mps 758 mmHg 54%
    14:00 +27°C° 0 mm 4 mps 757 mmHg 56%
    15:00 +27°C° 0 mm 4 mps 757 mmHg 58%
    16:00 +26°C° 0 mm 4 mps 757 mmHg 59%
    17:00 +26°C° 0 mm 4 mps 757 mmHg 61%
    18:00 +23°C° 0 mm 4 mps 757 mmHg 67%
    19:00 +22°C° 0 mm 4 mps 757 mmHg 74%
    20:00 +20°C° 0 mm 3 mps 757 mmHg 81%
    21:00 +19°C° 0 mm 3 mps 757 mmHg 82%
    22:00 +19°C° 0 mm 3 mps 758 mmHg 83%
    23:00 +19°C° 0 mm 3 mps 758 mmHg 84%

    27 May, Monday

    Time Temperature Precipitation Wind Pressure Humidity
    00:00 +19°C° 0 mm 2 mps 758 mmHg 83%
    01:00 +18°C° 0 mm 2 mps 757 mmHg 82%
    02:00 +18°C° 0 mm 2 mps 757 mmHg 81%
    03:00 +18°C° 0 mm 2 mps 757 mmHg 79%
    04:00 +18°C° 0 mm 2 mps 757 mmHg 78%
    05:00 +18°C° 0 mm 2 mps 757 mmHg 76%
    06:00 +20°C° 0 mm 2 mps 757 mmHg 70%
    07:00 +23°C° 0 mm 2 mps 757 mmHg 64%
    08:00 +25°C° 0 mm 2 mps 757 mmHg 58%
    09:00 +26°C° 0 mm 2 mps 757 mmHg 54%
    10:00 +27°C° 0 mm 3 mps 757 mmHg 51%
    11:00 +28°C° 0 mm 4 mps 757 mmHg 47%
    12:00 +28°C° 0 mm 4 mps 757 mmHg 47%
    13:00 +29°C° 0 mm 4 mps 756 mmHg 48%
    14:00 +29°C° 0 mm 4 mps 756 mmHg 48%
    15:00 +28°C° 0 mm 4 mps 756 mmHg 53%
    16:00 +27°C° 0 mm 4 mps 756 mmHg 58%
    17:00 +26°C° 0 mm 4 mps 756 mmHg 62%
    18:00 +23°C° 0 mm 4 mps 755 mmHg 68%
    19:00 +21°C° 0 mm 3 mps 755 mmHg 73%
    20:00 +20°C° 0 mm 3 mps 755 mmHg 79%
    21:00 +19°C° 0 mm 3 mps 755 mmHg 76%
    22:00 +19°C° 0 mm 2 mps 755 mmHg 74%
    23:00 +19°C° 0 mm 2 mps 755 mmHg 72%

    28 May, Tuesday

    Time Temperature Precipitation Wind Pressure Humidity
    00:00 +19°C° 0 mm 2 mps 755 mmHg 68%
    01:00 +19°C° 0 mm 2 mps 754 mmHg 65%
    02:00 +20°C° 0 mm 1 mps 754 mmHg 62%
    03:00 +20°C° 0 mm 1 mps 754 mmHg 63%
    04:00 +20°C° 0 mm 1 mps 754 mmHg 64%
    05:00 +20°C° 0 mm 1 mps 754 mmHg 65%
    06:00 +22°C° 0.3 mm 1 mps 754 mmHg 69%
    07:00 +23°C° 0.3 mm 1 mps 754 mmHg 73%
    08:00 +25°C° 0.3 mm 1 mps 754 mmHg 77%
    09:00 +27°C° 0.1 mm 2 mps 754 mmHg 63%
    10:00 +29°C° 0.1 mm 2 mps 754 mmHg 50%
    11:00 +31°C° 0.1 mm 3 mps 754 mmHg 36%
    12:00 +33°C° 0 mm 3 mps 754 mmHg 36%
    13:00 +33°C° 0 mm 3 mps 753 mmHg 36%
    14:00 +34°C° 0 mm 4 mps 753 mmHg 36%
    15:00 +33°C° 0 mm 3 mps 753 mmHg 38%
    16:00 +33°C° 0 mm 3 mps 753 mmHg 41%
    17:00 +31°C° 0 mm 3 mps 753 mmHg 44%
    18:00 +28°C° 0 mm 3 mps 753 mmHg 47%
    19:00 +26°C° 0 mm 3 mps 753 mmHg 50%
    20:00 +24°C° 0 mm 3 mps 753 mmHg 53%
    21:00 +22°C° 0 mm 4 mps 754 mmHg 51%
    22:00 +22°C° 0 mm 4 mps 754 mmHg 49%
    23:00 +22°C° 0 mm 4 mps 754 mmHg 47%
    Show more